Simultaneous Nadir Overpasses (SNOs) Predictions

Prediction of SNOs between GOES-14 and AQUA Satellite Orbit:

Table of predicted SNOs for the next 14.0 days since TLE Epoch: 3/21/2025
Index Date Time (GOES-14) GOES-14 Lat,Lon AQUA Lat,Lon Distance(km) Time Diff (sec)
1 03/22/2025 09:37:21 0.42,-108.16 -0.17,-105.46 307.04 80
2 03/22/2025 21:54:08 -0.39,-108.16 -0.85,-110.16 228.56 80
3 03/24/2025 21:37:05 -0.41,-108.17 0.22,-105.34 322.58 80
4 03/25/2025 09:53:43 0.39,-108.17 0.81,-110.00 208.05 80
5 03/27/2025 09:36:38 0.40,-108.19 -0.27,-105.17 344.14 80
6 03/27/2025 21:53:24 -0.38,-108.19 -0.75,-109.86 190.93 80
7 03/29/2025 21:36:16 -0.39,-108.20 0.27,-105.01 362.11 80
8 03/30/2025 09:52:53 0.36,-108.21 0.69,-109.68 168.23 80
9 04/01/2025 09:35:43 0.37,-108.22 -0.33,-104.82 385.29 80
10 04/01/2025 21:52:29 -0.34,-108.21 -0.61,-109.53 149.50 80
11 04/03/2025 21:35:17 -0.36,-108.22 0.42,-104.67 404.62 80
12 04/04/2025 09:51:54 0.33,-108.22 0.55,-109.33 125.57 80
